Flag for Greece Weather past 2 weeks in Rhodes, Rhodes, Greece

Now
54 °F

Passing clouds.


Feels Like: 54 °F
Forecast: 56 / 62 °F
Wind: No wind

Location: Rhodes Airport

Current Time: Dec 26, 2014 at 2:16:16 AM

Latest Report: Dec 26, 2014 at 1:50 AM


Visibility: N/A

Pressure: 30.12 "Hg

Humidity: 88%

Dew point: 50 °F

Location of RhodesLocation

Historic Weather in Rhodes — Graph

°F

Rhodes temperature yesterday

Maximum temperature yesterday: 68 °F (at 12:50 PM)
Minimum temperature yesterday: 54 °F (at 12:20 AM)
Average temperature yesterday: 59 °F

Past Weeks' High & Low Weather Summary

 TemperatureHumidityPressure
High68 °F (Dec 11, 1:50 PM)100% (Dec 12, 8:50 AM)30.27 "Hg (Dec 12, 8:50 AM)
Low52 °F (Dec 23, 1:50 AM)29% (Dec 22, 11:50 AM)29.71 "Hg (Dec 12, 6:50 AM)
Average59 °F74%30.10 "Hg
* Reported Dec 11 12:20 AM — Dec 26 12:50 AM, Rhodes, Weather by CustomWeather, © 2014

Note: Actual official high and low records may vary slightly from our data, if they occured in-between our weather recording intervals... More about our weather records

Advertising

Rhodes weather history for previous 24 hours

 ConditionsComfort  
Time TempWeatherWind HumidityBarometerVisibility
12:50 AM
Dec 26
54 °FPassing clouds.No wind94%30.12 "HgN/A
12:20 AM55 °FPassing clouds.1 mph88%30.12 "HgN/A
11:50 PM
Dec 25
55 °FPassing clouds.No wind88%30.12 "HgN/A
11:20 PM55 °FPassing clouds.2 mph94%30.15 "HgN/A
10:50 PM55 °FPassing clouds.2 mph94%30.15 "HgN/A
10:20 PM55 °FPassing clouds.3 mph94%30.15 "HgN/A
9:50 PM55 °FPassing clouds.2 mph94%30.15 "HgN/A
9:20 PM55 °FPassing clouds.2 mph88%30.15 "HgN/A
8:50 PM55 °FPassing clouds.3 mph88%30.18 "HgN/A
8:20 PM55 °FPassing clouds.No wind88%30.18 "HgN/A
7:50 PM55 °FPassing clouds.No wind88%30.18 "HgN/A
7:20 PM63 °FPassing clouds.No wind64%30.18 "HgN/A
6:50 PM63 °FPassing clouds.No wind64%30.18 "HgN/A
6:20 PM61 °FPassing clouds.3 mph77%30.18 "HgN/A
5:50 PM61 °FPassing clouds.3 mph77%30.18 "HgN/A
5:20 PM64 °FPassing clouds.2 mph68%30.18 "HgN/A
4:50 PM64 °FScattered clouds.3 mph68%30.18 "HgN/A
4:20 PM66 °FScattered clouds.6 mph64%30.18 "HgN/A
3:50 PM66 °FScattered clouds.5 mph64%30.18 "HgN/A
3:20 PM66 °FScattered clouds.6 mph64%30.18 "HgN/A
2:50 PM66 °FScattered clouds.5 mph64%30.18 "HgN/A
2:20 PM66 °FScattered clouds.5 mph64%30.18 "HgN/A
1:50 PM66 °FScattered clouds.5 mph64%30.21 "HgN/A
1:20 PM68 °FScattered clouds.6 mph56%30.24 "HgN/A
12:50 PM68 °FScattered clouds.8 mph56%30.24 "HgN/A
12:20 PM66 °FScattered clouds.3 mph60%30.24 "HgN/A
11:50 AM66 °FScattered clouds.5 mph60%30.24 "HgN/A
11:20 AM64 °FScattered clouds.6 mph68%30.27 "HgN/A
10:50 AM64 °FPassing clouds.3 mph68%30.27 "HgN/A
10:20 AM64 °FPassing clouds.6 mph68%30.27 "HgN/A
9:50 AM64 °FPassing clouds.6 mph68%30.27 "HgN/A
9:20 AM61 °FPassing clouds.1 mph77%30.27 "HgN/A
8:50 AM61 °FPassing clouds.2 mph77%30.27 "HgN/A
8:20 AM57 °FPassing clouds.1 mph72%30.27 "HgN/A
7:50 AM57 °FSunny.2 mph72%30.27 "Hg10 mi
7:20 AM54 °FPassing clouds.3 mph88%30.27 "HgN/A
6:50 AM54 °FClear.3 mph88%30.27 "Hg10 mi
6:20 AM54 °FClear.6 mph88%30.24 "Hg10 mi
5:50 AM54 °FClear.6 mph88%30.24 "Hg10 mi
5:20 AM54 °FClear.6 mph88%30.24 "Hg10 mi
4:50 AM54 °FClear.3 mph88%30.27 "Hg10 mi
4:20 AM54 °FClear.3 mph88%30.27 "Hg10 mi
3:50 AM54 °FClear.3 mph88%30.27 "Hg10 mi
3:20 AM54 °FClear.2 mph82%30.27 "Hg10 mi
2:50 AM54 °FClear.2 mph82%30.27 "Hg10 mi
2:20 AM54 °FClear.2 mph88%30.27 "Hg10 mi
Weather by CustomWeather, © 2014

See weather overviewHow to use our weather pages